Regional Weather Roundup
Issued by NWS

Home | Current Version | Previous Version | Text Only | Print | Product List | Glossary On
Versions: 1 2 3 4 5 6 7 8 9 10 11 12 13 14 15 16 17 18 19 20 21 22 23 24 25 26 27 28 29 30 31 32 33 34 35 36 37 38 39 40 41 42 43 44 45 46 47 48 49 50
000
ASUS45 KBOU 281107
RWRCO

WEATHER ROUNDUP FOR COLORADO
NATIONAL WEATHER SERVICE DENVER/BOULDER CO
500 AM MDT SAT MAR 28 2015

NOTE: "FAIR" INDICATES FEW OR NO CLOUDS BELOW 12000 FEET WITH NO
SIGNIFICANT WEATHER AND/OR OBSTRUCTIONS TO VISIBILITY.

COZ001>005-013-030-031-281200-
...NORTHWEST COLORADO...

CITY           SKY/WX    TMP DP  RH WIND       PRES   REMARKS
CRAIG          CLEAR     28  25  88 SW3       30.21S
HAYDEN         CLEAR     37  27  65 E10       30.21S
MEEKER         CLEAR     33  26  75 NE7       30.23S WCI  27
MOUNT WERNER   NOT AVBL
STEAMBOAT SPGS CLEAR     33  28  81 CALM      30.23S
WALDEN         CLEAR     30  23  74 SE9       30.24R WCI  22
$$

COZ006>008-011-281200-
...WEST CENTRAL VALLEYS...

CITY           SKY/WX    TMP DP  RH WIND       PRES   REMARKS
GRAND JUNCTION CLEAR     44  26  49 SE14      30.16S
MONTROSE       CLEAR     40  25  55 S5        30.24S
EAGLE          PTCLDY    32  25  74 CALM      30.29S
RIFLE          CLEAR     36  26  67 CALM      30.22S
DELTA          CLEAR     41  26  54 E3        30.22S
NUCLA          CLEAR     39  23  52 SE10      30.26F
$$

COZ017>023-064>068-281200-
...SOUTHWEST COLORADO...

CITY           SKY/WX    TMP DP  RH WIND       PRES   REMARKS
DURANGO        CLEAR     34  23  64 N3        30.26R
CORTEZ         CLEAR     30  21  69 E3        30.24S
PAGOSA SPRINGS CLEAR     33  23  67 NW3       30.30S
TELLURIDE      CLEAR     37  23  56 S6        30.38F
WOLF CREEK PAS CLEAR     32  14  47 W3        30.49S
$$

COZ009-010-012-014-032>034-037-058>063-281200-
...CENTRAL COLORADO...

CITY           SKY/WX    TMP DP  RH WIND       PRES   REMARKS
ASPEN          PTCLDY    35  23  61 SW9       30.28S WCI  28
BUENA VISTA    CLEAR     32  23  70 N3        30.28F
COPPER MTN     PTCLDY    34  21  60 W3        30.43S
BERTHOUD PASS  FAIR      27  19  74 NW32G43   30.39F WCI  10
COTTONWOOD PAS CLEAR     41  18  38 W10       30.34S
GUNNISON       PTCLDY    27  19  74 CALM      30.36R
KREMMLING      CLEAR     30  27  86 CALM      30.29R
LEADVILLE      CLEAR     30  18  60 NE6       30.33S WCI  24
SALIDA         CLEAR     37  25  60 CALM      30.35S
SUNLIGHT       CLEAR     36  23  60 CALM      30.42S
WILKERSON PASS PTCLDY    32  19  59 W9G20     30.39S WCI  24
$$

COZ069>075-281200-
...SAN LUIS VALLEY/SANGRE DE CRISTO MOUNTAINS...

CITY           SKY/WX    TMP DP  RH WIND       PRES   REMARKS
ALAMOSA        PTCLDY    28  17  63 E7        30.28R WCI  21
LA VETA PASS   CLEAR     34  18  51 S5        30.34F WCI  30
SAGUACHE       PTCLDY    36  21  55 NW15      30.29S
$$

COZ035-036-038>040-281200-
...NORTHERN COLORADO FRONT RANGE...

CITY           SKY/WX    TMP DP  RH WIND       PRES   REMARKS
DENVER INTL AP CLEAR     47  30  51 SW12      30.07S
DMNS CITY PARK   N/A     49  26  41 S5G10     30.08S
AURORA         NOT AVBL
FRONT RANGE AP CLEAR     52  32  46 SW12      30.08S
ERIE MUNI ARPT CLEAR     42  30  62 CALM      30.07R
BOULDER MUN AP CLEAR     48  28  46 SW7       30.07R
CENTENNIAL     CLEAR     50  26  39 SW12      30.10S
BROOMFIELD     CLEAR     52  27  37 W8        30.08S
FORT COLLINS   CLEAR     45  28  53 SW5       30.07S
LONGMONT       CLEAR     42  31  64 CALM      30.07S
$$

COZ041-046-047-076>085-087-088-281200-
...PIKES PEAK/PALMER DIVIDE AND SOUTHERN FOOTHILLS...

CITY           SKY/WX    TMP DP  RH WIND       PRES   REMARKS
COLO. SPRINGS  CLEAR     44  25  47 N8        30.14S
A. F. ACADEMY  PTCLDY    46  23  40 NE7       30.14S
ELLICOTT       CLEAR    N/A N/A N/A CALM      30.12S
FALCON         CLEAR     42  23  46 NW9       30.17S
FORT CARSON    CLEAR     41  27  57 NW5       30.11S
LIMON          CLEAR     33  28  81 N7        30.08S WCI  27
MONUMENT HILL  CLEAR     39  25  56 SW9       30.16S
TRINIDAD       CLEAR     43  28  55 SW17      30.14S
$$

COZ042>045-048>051-090-091-281200-
...NORTHEAST COLORADO...

CITY           SKY/WX    TMP DP  RH WIND       PRES   REMARKS
GREELEY ARPT   CLEAR     36  23  60 CALM      30.04S
AKRON          CLEAR     43  32  65 W12       30.02F
BURLINGTON     CLEAR     41  33  73 W9        30.02R
WRAY           CLEAR     38  32  77 W7        29.99F
STERLING       CLEAR     32  30  93 SW6       30.00S WCI  26
HOLYOKE        CLEAR     41  32  70 W3        29.99R
FORT MORGAN    CLEAR     41  28  59 W9        30.04S
$$

COZ086-089-092>099-281200-
...SOUTHEAST COLORADO...

CITY           SKY/WX    TMP DP  RH WIND       PRES   REMARKS
PUEBLO         CLEAR     42  30  62 W9        30.08S
LA JUNTA       CLEAR     45  34  65 W17       30.04S
LAMAR          CLEAR     41  33  73 SW8       30.01S
SPRINGFIELD      N/A     47  32  56 W13       30.04F
$$



USA.gov is the U.S. government's official web portal to all federal, state and local government web resources and services.